This is the latest recevied weather packets stored in our database for station/object K5UBE. If no packets are shown the sender has not sent any weather packets the latest 10 day(s).
| Time | Temp. | Humidity | Pressure | Rain* | Wind** | Luminosity | Snow |
|---|---|---|---|---|---|---|---|
| 1777659506 | 10° C | 65% | 1022.7 hPa | 0 mm | - | - | - |
| 1777659203 | 10° C | 66% | 1022.7 hPa | 0 mm | - | - | - |
| 1777658900 | 10.56° C | 66% | 1022.6 hPa | 0 mm | - | - | - |
| 1777658596 | 10.56° C | 63% | 1022.6 hPa | 0 mm | - | - | - |
| 1777658294 | 10.56° C | 63% | 1022.7 hPa | 0 mm | - | - | - |
| 1777657990 | 10.56° C | 68% | 1022.7 hPa | 0 mm | - | - | - |
| 1777657687 | 10.56° C | 67% | 1022.8 hPa | 0 mm | - | - | - |
| 1777657384 | 10.56° C | 66% | 1022.8 hPa | 0 mm | - | - | - |
| 1777657082 | 10.56° C | 69% | 1022.8 hPa | 0 mm | - | - | - |
| 1777656779 | 10° C | 72% | 1022.8 hPa | 0 mm | - | - | - |
| 1777656475 | 10° C | 74% | 1023 hPa | 0 mm | - | - | - |
| 1777656170 | 10° C | 76% | 1022.6 hPa | 0 mm | - | - | - |
| 1777655866 | 9.44° C | 76% | 1022.7 hPa | 0 mm | - | - | - |
| 1777655563 | 10° C | 76% | 1022.8 hPa | 0 mm | - | - | - |
| 1777655260 | 9.44° C | 76% | 1023 hPa | 0 mm | - | - | - |
| 1777654957 | 9.44° C | 78% | 1022.8 hPa | 0 mm | - | - | - |
| 1777654654 | 8.89° C | 85% | 1023 hPa | 0 mm | - | - | - |
| 1777654352 | 8.89° C | 86% | 1023 hPa | 0 mm | - | - | - |
| 1777654050 | 8.33° C | 87% | 1022.7 hPa | 0 mm | - | - | - |
| 1777653746 | 8.33° C | 87% | 1022.7 hPa | 0 mm | - | - | - |
| 1777653442 | 8.33° C | 87% | 1023.1 hPa | 0 mm | - | - | - |
| 1777653140 | 8.33° C | 88% | 1022.7 hPa | 0 mm | - | - | - |
| 1777652835 | 8.33° C | 88% | 1022.8 hPa | 0 mm | - | - | - |
| 1777652532 | 8.33° C | 87% | 1022.7 hPa | 1.78 mm | - | - | - |
| 1777652230 | 7.78° C | 87% | 1022.8 hPa | 1.78 mm | - | - | - |
* Rain latest hour (hover to see other rain measurements)
** Current wind speed in m/s (hover to see current wind gust speed)